Meteo Giornale » Osservazioni meteo India » New Delhi-Palam
ore: 19:30 - Osservazioni Meteo New Delhi-Palam
Lat. 28° 34' N Lon. 77° 7' E Alt. 220 metri s.l.m.
30 °C
Temporale
Temp. 24 Ore
27 °C
34 °C
Est/Nord-Est
14.8 Km/h
Dew point 25 °C
Umidità 74 %
Visibilità 4 Km
Il sole sorge alle ore 05:59
Il sole tramonta alle ore 18:43
| Data e Ora | Cielo e Fenomeni | T °C | DP °C | Um. % | Pres. hPa | Vis. km | Vento km/h | |
|---|---|---|---|---|---|---|---|---|
| Oggi h: 19:30 | Temporale | 30 | 25 | 74 | 1005 | 4 | E/NE 14.8 | |
| Oggi h: 19:00 | Foschia | 32 | 25 | 66 | 1005 | 5 | E/NE 7.4 | |
| Oggi h: 18:30 | Foschia | 33 | 24 | 59 | 1004 | 5 | NE 7.4 | |
| Oggi h: 18:00 | Foschia | 33 | 24 | 59 | 1004 | 5 | N 5.5 | |
| Oggi h: 17:30 | Foschia | 33 | 24 | 59 | 1004 | 5 | N 5.5 | |
| Oggi h: 17:00 | Foschia | 34 | 23 | 52 | 1004 | 5 | N 5.5 | |
| Oggi h: 16:30 | Nuvoloso | 34 | 23 | 52 | 1004 | 6 | N 5.5 | |
| Oggi h: 16:00 | Molto Nuvoloso | 33 | 23 | 55 | 1004 | 6 | N 5.5 | |
| Oggi h: 15:30 | Molto Nuvoloso | 33 | 23 | 55 | 1004 | 6 | NE 9.3 | |
| Oggi h: 15:00 | Molto Nuvoloso | 33 | 23 | 55 | 1004 | 6 | NE 9.3 | |
| Oggi h: 14:30 | Molto Nuvoloso | 33 | 23 | 55 | 1005 | 6 | N 9.3 | |
| Oggi h: 14:00 | Nuvoloso | 33 | 23 | 55 | 1005 | 6 | N/NO 11.1 | |
| Oggi h: 13:30 | Nuvoloso | 33 | 23 | 55 | 1005 | 8 | NO 7.4 | |
| Oggi h: 13:00 | Poco Nuvoloso | 33 | 23 | 55 | 1005 | 8 | O 9.3 | |
| Oggi h: 12:30 | Poco Nuvoloso | 33 | 23 | 55 | 1006 | 8 | O 11.1 | |
| Oggi h: 12:00 | Poco Nuvoloso | 33 | 23 | 55 | 1006 | 8 | O/NO 13 | |
| Oggi h: 11:30 | Poco Nuvoloso | 32 | 23 | 59 | 1006 | 8 | O 14.8 | |
| Oggi h: 11:00 | Nuvoloso | 32 | 23 | 59 | 1006 | 8 | O 18.5 | |
| Oggi h: 10:30 | Nuvoloso | 32 | 23 | 59 | 1006 | 8 | O 18.5 | |
| Oggi h: 10:00 | Nuvoloso | 30 | 23 | 66 | 1006 | 7 | O 16.7 | |
| Oggi h: 09:30 | Nuvoloso | 30 | 23 | 66 | 1006 | 6 | O 14.8 | |
| Oggi h: 09:00 | Molto Nuvoloso | 29 | 22 | 66 | 1006 | 6 | O 14.8 | |
| Oggi h: 08:30 | Foschia | 28 | 22 | 69 | 1005 | 5 | O/SO 14.8 | |
| Oggi h: 08:00 | Foschia | 28 | 22 | 69 | 1005 | 5 | O 14.8 | |
| Oggi h: 07:30 | Foschia | 28 | 22 | 69 | 1005 | 4 | O 14.8 | |
| Oggi h: 07:00 | Foschia | 28 | 23 | 74 | 1004 | 4 | O 16.7 | |
| Oggi h: 06:30 | Foschia | 28 | 23 | 74 | 1004 | 4 | S/SE 16.7 | |
| Oggi h: 06:00 | Foschia | 27 | 25 | 88 | 1004 | 5 | E 13 | |
| Oggi h: 05:30 | Foschia | 28 | 22 | 69 | 1003 | 5 | O/SO 13 | |
| Oggi h: 05:00 | Foschia | 28 | 23 | 74 | 1003 | 5 | O/SO 9.3 | |
| Oggi h: 04:30 | Foschia | 29 | 23 | 70 | 1003 | 5 | O/SO 9.3 | |
| Oggi h: 04:00 | Foschia | 29 | 23 | 70 | 1003 | 5 | O 9.3 | |
| Oggi h: 03:30 | Foschia | 29 | 23 | 70 | 1003 | 5 | O/SO 9.3 | |
| Oggi h: 03:00 | Foschia | 29 | 23 | 70 | 1003 | 5 | O 9.3 | |
| Oggi h: 02:30 | Foschia | 29 | 23 | 70 | 1003 | 5 | O 7.4 | |
| Oggi h: 02:00 | Foschia | 30 | 23 | 66 | 1003 | 5 | O/SO 9.3 | |
| Oggi h: 01:30 | Foschia | 30 | 23 | 66 | 1003 | 5 | O 9.3 | |
| Oggi h: 01:00 | Foschia | 30 | 23 | 66 | 1004 | 5 | O/SO 9.3 | |
| Oggi h: 00:30 | Foschia | 30 | 24 | 70 | 1004 | 5 | O/SO 7.4 | |
| Oggi h: 00:00 | Foschia | 31 | 24 | 66 | 1004 | 5 | SO 9.3 | |
| Ieri h: 23:30 | Foschia | 31 | 24 | 66 | 1004 | 5 | N 5.5 | |
| Ieri h: 23:00 | Foschia | 31 | 24 | 66 | 1004 | 5 | N 3.7 | |
| Ieri h: 22:30 | Foschia | 31 | 24 | 66 | 1004 | 5 | N 5.5 | |
| Ieri h: 22:00 | Foschia | 31 | 24 | 66 | 1004 | 5 | N 3.7 | |
| Ieri h: 21:30 | Foschia | 31 | 23 | 62 | 1004 | 5 | N 3.7 | |
| Ieri h: 21:00 | Foschia | 31 | 23 | 62 | 1003 | 5 | N 5.5 | |
| Ieri h: 20:30 | Foschia | 32 | 23 | 59 | 1003 | 5 | O/SO 7.4 | |



